Location: Bucharest
(44.4268°N, 26.1025°E)
Time: 00:45:04
(UTC+03:00)

O/OREOS (USA 219) - Pass Details

Date: 07 July 2022
Orbit: 621 x 646 km, 72.0° (Epoch: 22 May)

Event Time Altitude Azimuth Distance (km) Brightness Sun altitude
Rises 23:43:33 0° 341° (NNW) 2,967 ? -19.5°
Reaches altitude 10° 23:45:57 10° 348° (NNW) 2,054 ? -19.6°
Maximum altitude 23:50:20 42° 60° (ENE) 920 ? -19.9°
Enters shadow 23:51:51 32° 105° (ESE) 1,111 ? -20.0°
